Santa Maria, CA

10:04 AM PDT on March 28, 2017 (GMT -0700)
Santa Maria Public Airport / Captain G. Allan Hancock Field

Weather History for KSMX - March, 2014

Change the Weather History Date:

Wednesday, March 19, 2014

  Actual Average Record
Temperature  
Mean Temperature 62 °F 54 °F  
Max Temperature 79 °F 65 °F 83 °F (1984)
Min Temperature 45 °F 43 °F 31 °F (1920)
Degree Days  
Heating Degree Days 3 11  
Month to date heating degree days 72 209  
Since 1 July heating degree days 1210 2042  
Cooling Degree Days 0 0  
Month to date cooling degree days 8 0  
Year to date cooling degree days 12 1  
Growing Degree Days 12 (Base 50)    
Moisture  
Dew Point 39 °F    
Average Humidity 46    
Maximum Humidity 71    
Minimum Humidity 21    
Precipitation  
Precipitation 0.00 in 0.08 in 1.41 in (1999)
Month to date precipitation 0.79 1.82  
Year to date precipitation 2.68 7.56  
Since 1 July precipitation 3.18  
Sea Level Pressure  
Sea Level Pressure 30.03 in    
Wind  
Wind Speed 5 mph (SW)    
Max Wind Speed 18 mph    
Max Gust Speed 22 mph    
Visibility 10 miles    
Events      
T = Trace of Precipitation, MM = Missing Value Source: NWS Daily Summary

Daily Weather History Graph

Daily Weather History Graph

Search for Another Location

Airport or City:

Trip Planner

Search our weather history database for the weather conditions in past years. The results will help you decide how hot, cold, wet, or windy it might be!

Date:

Astronomy

Mar. 19, 2014 Rise Set
Actual Time 7:06 AM PDT 7:12 PM PDT
Civil Twilight 6:41 AM PDT 7:38 PM PDT
Nautical Twilight 6:12 AM PDT 8:07 PM PDT
Astronomical Twilight 5:42 AM PDT 8:37 PM PDT
Moon 10:27 PM PDT (3/19) 8:43 AM PDT (3/19)
Length of Visible Light 12h 56m
Length of Day
12h 06m
Waning Gibbous, 90% of the Moon is Illuminated
Mar 19
Waning Gibbous
Mar 23
Last Quarter
Mar 30
New
Apr 7
First Quarter
Apr 15
Full

Hourly Weather History & Observations

Time (PDT) Temp. Dew Point Humidity Pressure Visibility Wind Dir Wind Speed Gust Speed Precip Events Conditions
12:51 AM 50.0 °F 39.0 °F 66% 29.96 in 10.0 mi ESE 5.8 mph - N/A   Clear
1:51 AM 50.0 °F 39.0 °F 66% 29.96 in 10.0 mi Calm Calm - N/A   Clear
2:51 AM 46.9 °F 37.9 °F 71% 29.97 in 10.0 mi SSE 3.5 mph - N/A   Clear
3:51 AM 48.0 °F 39.0 °F 71% 29.96 in 10.0 mi ESE 3.5 mph - N/A   Clear
4:51 AM 46.9 °F 37.9 °F 71% 29.98 in 10.0 mi Calm Calm - N/A   Clear
5:51 AM 46.9 °F 37.9 °F 71% 29.98 in 10.0 mi SSE 3.5 mph - N/A   Clear
6:51 AM 46.9 °F 37.0 °F 68% 29.99 in 10.0 mi SE 4.6 mph - N/A   Clear
7:51 AM 48.9 °F 39.0 °F 69% 30.02 in 10.0 mi Calm Calm - N/A   Clear
8:51 AM 55.0 °F 43.0 °F 64% 30.04 in 10.0 mi Calm Calm - N/A   Clear
9:51 AM 64.0 °F 39.9 °F 41% 30.06 in 10.0 mi Calm Calm - N/A   Clear
10:51 AM 71.1 °F 35.1 °F 27% 30.06 in 10.0 mi Calm Calm - N/A   Clear
11:51 AM 75.0 °F 35.1 °F 23% 30.06 in 10.0 mi NNW 4.6 mph - N/A   Clear
12:51 PM 77.0 °F 37.0 °F 24% 30.05 in 10.0 mi Variable 4.6 mph - N/A   Partly Cloudy
1:51 PM 78.1 °F 37.0 °F 23% 30.04 in 10.0 mi WNW 12.7 mph - N/A   Partly Cloudy
2:51 PM 79.0 °F 35.1 °F 20% 30.03 in 10.0 mi NNW 15.0 mph - N/A   Scattered Clouds
3:51 PM 75.0 °F 39.0 °F 27% 30.03 in 10.0 mi NW 15.0 mph - N/A   Scattered Clouds
4:51 PM 69.1 °F 45.0 °F 42% 30.04 in 10.0 mi NW 9.2 mph - N/A   Scattered Clouds
5:51 PM 69.1 °F 42.1 °F 38% 30.04 in 10.0 mi NW 9.2 mph - N/A   Scattered Clouds
6:51 PM 64.0 °F 42.1 °F 45% 30.04 in 10.0 mi NW 4.6 mph - N/A   Scattered Clouds
7:51 PM 61.0 °F 44.1 °F 54% 30.04 in 10.0 mi SW 3.5 mph - N/A   Clear
8:51 PM 59.0 °F 43.0 °F 55% 30.06 in 10.0 mi SSE 3.5 mph - N/A   Clear
9:51 PM 57.0 °F 42.1 °F 57% 30.06 in 10.0 mi ESE 3.5 mph - N/A   Clear
10:51 PM 54.0 °F 39.9 °F 59% 30.07 in 10.0 mi SSW 3.5 mph - N/A   Clear
11:51 PM 53.1 °F 39.9 °F 61% 30.07 in 10.0 mi Calm Calm - N/A   Clear